Location: Ahstedt
(52.2048°N, 10.1060°E)
Time: 20:41:38
(UTC+00:00)

ATLAS 2AS CENTAUR R/B - Pass Details

Date: 18 January 2026
Orbit: 1050 x 1161 km, 63.7° (Epoch: 16 February)

Event Time Altitude Azimuth Distance (km) Brightness Sun altitude
Exits shadow 05:04:09 31° 300° (WNW) 1,760 3.3 -20.0°
Maximum altitude 05:07:23 60° 234° (SW) 1,196 2.7 -19.5°
Drops below altitude 10° 05:14:00 10° 156° (SSE) 2,866 5.4 -18.5°
Sets 05:16:39 0° 153° (SSE) 3,824 6.1 -18.1°
